History for Miami, FL

Friday, March 16, 2012 — View Current Conditions

Jump to Data:

Date:
Airport Code:
Recently Viewed Airport Codes: KMIA
Daily Summary
  Actual Average Record
Temperature
Mean Temperature 75°F 73°F  
Max Temperature 79°F 80°F 91°F (2008)
Min Temperature 70°F 65°F 44°F (1988)
Degree Days
Heating Degree Days 0 0  
Month to date heating degree days 0 8  
Since 1 July heating degree days 55 124  
Cooling Degree Days 10 8  
Month to date cooling degree days 159 120  
Year to date cooling degree days 568 442  
Growing Degree Days 24 (Base 50)    
Moisture
Dew Point 64°F    
Average Humidity 69    
Maximum Humidity 84    
Minimum Humidity 54    
Precipitation
Precipitation 0.57 in 0.10 in 1.76 in (2007)
Month to date precipitation 3.38 1.42  
Year to date precipitation 6.97 5.29  
Snow
Snow 0.00 in in in ()
Month to date snowfall 0.0  
Since 1 July snowfall 0.0  
Snow Depth 0.00 in    
Sea Level Pressure
Sea Level Pressure 30.17 in    
Wind
Wind Speed 9 mph (ENE)    
Max Wind Speed 20 mph    
Max Gust Speed 22 mph    
Visibility 10 miles    
Events Rain    
T = Trace of Precipitation, MM = Missing Value Source: NWS Daily Summary

Show full METARS

(help) - Comma Delimited File

Hourly Observations

Time(EDT) Temperature Dew Point Humidity Sea Level Pressure Visibility Wind Direction Wind Speed Gust Speed Precipitation Events Conditions
12:53 AM 73.0°F 66.0°F 79% 30.18 in 10.0 miles ENE 5.8 mph - N/A   Mostly Cloudy
1:53 AM 71.1°F 66.0°F 84% 30.17 in 10.0 miles East 9.2 mph - 0.00 in   Scattered Clouds
2:53 AM 71.1°F 64.9°F 81% 30.14 in 10.0 miles East 9.2 mph - N/A   Scattered Clouds
3:53 AM 71.1°F 64.9°F 81% 30.13 in 10.0 miles East 6.9 mph - N/A   Scattered Clouds
4:53 AM 71.6°F 64.4°F 78% 30.12 in 10.0 miles East 8.1 mph - N/A   Mostly Cloudy
5:53 AM 70.0°F 64.9°F 84% 30.14 in 10.0 miles East 6.9 mph - N/A   Scattered Clouds
6:53 AM 70.0°F 64.9°F 84% 30.16 in 10.0 miles East 6.9 mph - N/A   Scattered Clouds
7:53 AM 71.1°F 64.9°F 81% 30.18 in 10.0 miles East 6.9 mph - N/A   Mostly Cloudy
8:05 AM 73.4°F 64.4°F 73% 30.18 in 10.0 miles East 6.9 mph - N/A   Mostly Cloudy
8:53 AM 73.0°F 66.0°F 79% 30.20 in 10.0 miles NE 5.8 mph - N/A   Mostly Cloudy
9:53 AM 75.9°F 66.9°F 74% 30.21 in 10.0 miles ESE 12.7 mph - 0.00 in   Mostly Cloudy
10:53 AM 75.0°F 64.9°F 71% 30.22 in 10.0 miles East 9.2 mph - N/A   Mostly Cloudy
11:53 AM 73.9°F 66.0°F 76% 30.22 in 10.0 miles East 17.3 mph - 0.00 in Rain Light Rain
12:53 PM 71.1°F 64.9°F 81% 30.21 in 6.0 miles East 15.0 mph 21.9 mph 0.30 in Rain Rain
1:02 PM 71.6°F 66.2°F 83% 30.21 in 7.0 miles NE 4.6 mph - 0.10 in Rain Light Rain
1:53 PM 72.0°F 66.0°F 81% 30.19 in 6.0 miles NE 13.8 mph - 0.14 in Rain Light Rain
2:03 PM 71.6°F 66.2°F 83% 30.19 in 7.0 miles ENE 10.4 mph - 0.05 in Rain Light Rain
2:53 PM 73.9°F 64.0°F 71% 30.17 in 10.0 miles ENE 9.2 mph - 0.13 in   Mostly Cloudy
3:53 PM 79.0°F 63.0°F 58% 30.15 in 10.0 miles East 13.8 mph 17.3 mph N/A   Mostly Cloudy
4:53 PM 78.1°F 61.0°F 56% 30.14 in 10.0 miles ENE 11.5 mph - N/A   Mostly Cloudy
5:53 PM 75.9°F 62.1°F 62% 30.14 in 10.0 miles East 10.4 mph - N/A   Mostly Cloudy
6:53 PM 75.0°F 61.0°F 62% 30.15 in 10.0 miles East 11.5 mph - N/A   Scattered Clouds
7:53 PM 73.9°F 62.1°F 66% 30.16 in 10.0 miles ENE 8.1 mph - N/A   Scattered Clouds
8:53 PM 73.9°F 62.1°F 66% 30.17 in 10.0 miles ENE 8.1 mph - N/A   Scattered Clouds
9:53 PM 73.0°F 63.0°F 71% 30.19 in 10.0 miles ENE 5.8 mph - N/A   Partly Cloudy
10:53 PM 73.0°F 63.0°F 71% 30.19 in 10.0 miles ENE 4.6 mph - N/A   Partly Cloudy
11:53 PM 72.0°F 63.0°F 73% 30.20 in 10.0 miles North 3.5 mph - N/A   Scattered Clouds